Vorticity
3 4 3 1 4 2 1 6 6 6 6 4 4 2 5 3 3 6 4 2 2 7 6 5 18 16 6 6 2 4 7 5 9 9 6 7 7 9 10 11 11 9 6 4 5 7 8 8 7 6 2 1 4 5 6 6 6 6 5 5 4 3 4 4 4 5 5 5 4 4 4 5 6 5 5 5 5 4 4 5 6 7 8 7 7 7 8 7 5 3 4 5 6 7 5 5 5
3 3 3 2 6 5 -2 4 8 6 7 5 5 5 7 5 4 7 4 4 5 5 5 -0 4 6 2 1 -0 5 5 4 7 5 7 8 11 15 10 9 9 7 6 5 6 7 7 7 7 6 3 1 3 5 6 5 6 6 5 4 3 4 5 5 5 4 4 4 4 5 5 6 5 5 5 5 5 5 4 5 5 6 7 7 7 8 9 8 7 4 3 4 5 7 7 6 5
5 5 5 3 4 6 -1 1 7 5 7 7 6 6 6 4 4 6 3 4 6 3 5 2 1 4 2 2 5 7 2 1 3 4 8 8 11 10 8 9 7 6 5 4 4 4 6 7 6 4 4 4 3 4 5 5 6 6 4 4 4 5 5 4 4 4 4 5 5 6 6 6 6 7 6 6 6 6 6 6 5 5 5 6 7 8 10 9 9 7 4 4 4 5 6 7 7
2 4 5 7 5 4 0 1 6 5 4 5 7 9 6 2 5 6 2 3 4 3 4 3 3 5 5 5 6 7 7 9 6 3 4 6 8 6 7 8 5 6 4 3 3 4 7 6 5 4 5 6 4 3 4 5 5 6 5 4 5 5 4 4 4 5 5 5 6 6 7 8 8 8 7 7 6 7 7 7 6 5 5 4 4 6 8 9 10 11 9 6 4 4 4 5 7
1 1 1 7 7 6 2 -5 1 9 3 0 7 11 8 4 6 5 2 3 3 4 5 5 5 4 7 9 7 6 9 10 6 3 5 6 7 5 5 6 6 6 3 2 3 5 6 5 5 4 6 7 6 5 4 5 5 6 6 5 5 4 5 5 6 6 6 6 7 8 9 9 8 8 7 7 7 7 8 8 7 7 6 5 4 4 4 7 8 10 11 10 9 6 5 3 4
5 3 1 6 8 13 17 5 -1 8 4 -1 5 6 5 4 7 7 6 6 5 6 6 7 8 5 8 11 8 6 6 4 3 8 10 6 6 7 6 5 5 3 2 4 5 5 5 5 5 5 7 7 7 5 5 6 6 5 6 6 5 5 6 6 7 6 7 7 8 9 9 9 8 7 7 7 6 6 7 7 7 8 7 6 5 5 5 6 6 6 7 8 9 9 9 6 4
5 2 1 4 6 5 10 12 2 3 5 3 6 3 2 3 5 6 5 5 7 8 6 6 6 5 5 5 5 5 7 7 6 11 12 7 6 7 6 6 3 2 3 4 4 4 5 5 6 6 6 7 7 6 5 6 7 6 6 6 6 6 7 7 7 7 8 8 9 9 8 7 7 7 7 7 7 7 7 6 7 7 6 5 5 5 6 6 6 6 6 6 7 8 9 9 8
3 2 3 4 5 1 -3 2 -1 0 4 4 9 3 -0 5 5 5 5 7 8 7 6 7 5 7 5 1 7 7 8 11 8 10 10 7 6 6 6 6 3 2 4 5 5 4 5 5 5 6 5 5 6 7 6 6 7 6 7 7 7 7 7 7 7 7 7 8 9 9 8 8 8 8 8 8 9 10 10 11 10 9 7 5 4 5 4 4 4 3 4 4 5 6 6 7 8
4 1 1 2 6 12 8 2 -3 1 3 2 11 5 0 7 5 3 7 7 6 7 7 8 7 9 7 6 11 7 7 11 8 8 6 5 5 5 5 5 3 2 4 5 5 5 5 5 5 5 5 5 5 8 6 6 7 7 7 7 7 7 7 7 7 7 7 8 9 9 8 8 9 8 9 9 9 10 11 12 13 13 12 10 10 9 9 8 7 7 6 4 2 2 3 4 4
4 -1 -1 5 7 15 17 9 -3 -0 2 0 7 5 5 8 3 3 5 5 5 8 8 7 8 9 8 9 12 8 8 8 6 6 5 5 5 5 5 5 3 3 4 4 4 4 5 5 5 6 5 5 6 8 7 7 7 7 8 7 8 7 6 6 7 7 7 8 8 8 8 7 8 8 8 8 7 7 8 9 10 11 12 13 13 13 13 12 12 13 14 12 8 4 3 3 3
3 1 2 6 6 12 20 22 10 -1 -3 1 7 6 8 6 5 7 3 5 7 7 8 8 8 10 10 11 11 9 9 7 5 6 5 5 5 6 6 4 4 2 4 4 4 4 5 5 5 6 6 6 7 8 8 8 8 7 7 7 6 6 6 6 6 6 6 6 7 7 5 5 6 8 8 8 7 7 8 8 8 8 8 9 9 10 10 10 10 11 12 13 14 12 10 8 8
5 4 -0 2 7 8 6 18 18 1 -3 5 8 7 9 7 9 11 6 8 9 6 8 11 9 11 12 11 10 9 9 10 8 7 6 5 5 5 4 4 3 3 5 4 4 5 5 5 5 7 7 7 8 8 9 9 8 7 6 6 6 6 6 6 6 6 7 6 6 6 6 6 7 8 9 8 8 8 8 8 8 9 9 9 9 9 9 9 9 8 9 10 11 12 12 11 11
2 1 -1 3 6 5 5 16 9 -5 -1 5 6 11 9 3 7 7 9 11 8 7 7 8 8 9 9 7 9 9 8 9 9 8 5 4 5 5 4 4 3 3 5 5 5 5 5 5 6 7 8 9 9 9 9 8 7 6 5 6 6 6 6 6 6 6 7 7 6 6 7 8 8 9 9 8 8 8 7 7 8 8 8 9 9 8 8 9 9 9 9 9 9 9 10 10 10
3 3 4 5 0 1 11 13 1 -6 -1 3 4 8 2 1 10 7 9 10 5 6 5 6 7 7 8 7 8 7 7 8 7 7 5 3 5 6 4 3 3 3 5 6 6 6 6 6 7 7 8 9 10 10 9 7 6 5 5 6 6 6 6 6 6 7 7 6 6 6 7 8 8 8 8 7 7 7 7 6 6 6 6 6 6 6 6 6 7 7 8 8 9 9 10 11 11
3 8 6 3 2 3 5 -1 1 5 -2 5 6 2 4 7 14 9 8 9 5 5 4 6 8 7 6 8 9 6 7 7 4 4 4 4 6 6 3 3 3 4 6 8 7 6 6 6 7 8 10 11 10 9 8 6 5 5 5 5 6 5 5 6 6 7 6 7 6 7 8 7 7 6 6 6 6 6 5 5 5 4 4 4 5 5 5 6 5 5 5 6 7 7 7 8 8
0 2 3 4 6 6 8 1 8 10 -3 7 8 2 8 9 10 6 4 9 10 8 7 7 7 8 5 6 10 8 7 6 6 6 5 6 6 4 2 4 5 5 7 8 8 7 7 7 8 9 10 11 9 7 6 5 5 5 6 5 5 5 5 6 7 6 6 7 7 7 7 6 6 5 4 4 4 4 4 5 5 4 4 5 5 5 6 6 5 5 5 5 6 6 6 6 6
2 1 5 10 10 5 11 8 9 9 1 6 4 4 5 4 9 4 3 9 8 9 13 10 5 7 5 6 9 9 7 5 7 6 5 5 4 4 2 4 6 7 9 9 8 7 8 8 9 10 9 8 7 6 5 5 5 5 6 5 5 5 5 6 7 6 6 7 7 7 7 5 4 3 4 4 4 4 4 5 5 6 5 6 5 5 5 5 5 6 6 6 6 7 7 7 7
10 13 8 5 9 6 5 6 8 6 5 5 -1 4 3 3 10 7 9 9 9 13 12 8 7 9 7 6 6 5 6 8 7 4 4 5 3 4 3 5 7 8 9 9 7 7 9 8 9 9 6 6 6 6 6 5 6 5 5 5 6 5 5 6 6 5 5 6 6 6 5 4 3 3 3 3 4 4 5 5 4 5 5 5 5 5 5 5 6 6 6 6 6 7 6 7 7
5 15 3 -2 15 14 6 3 6 9 10 10 3 5 4 4 11 12 13 10 16 16 3 6 11 10 6 6 6 4 8 11 10 5 5 6 5 6 5 7 8 8 9 8 8 8 9 9 9 8 5 6 6 6 6 5 5 5 5 5 5 6 5 6 7 6 5 5 5 5 4 3 3 3 4 4 4 4 5 4 4 4 3 4 5 4 5 5 5 6 6 5 6 7 7 6 7
-5 10 2 -4 7 9 14 1 -1 8 6 11 7 4 4 3 11 12 12 13 18 12 3 11 11 7 8 8 9 7 9 13 13 8 5 6 7 8 8 9 7 8 9 8 9 8 9 10 8 6 6 7 6 6 5 5 5 5 5 5 5 6 6 7 7 6 6 6 5 4 3 3 4 3 3 4 4 5 5 4 5 5 4 4 5 4 5 5 5 5 5 5 5 5 6 6 6
-13 -3 -3 -6 -8 -5 9 -3 5 15 4 15 6 -2 6 4 9 10 14 16 12 8 7 11 9 9 11 8 9 8 9 13 14 10 5 7 9 10 10 9 8 8 9 9 11 10 9 10 7 6 6 5 5 5 5 5 5 5 5 5 6 6 6 6 7 6 5 6 5 4 3 3 4 4 4 4 4 5 4 4 4 4 4 4 5 5 5 5 5 5 4 4 4 4 5 5 5
-9 -11 -11 -12 -13 -9 -6 -11 19 21 -2 13 3 -4 11 6 6 11 21 21 10 8 7 7 7 8 8 7 10 11 11 12 13 13 9 8 10 11 9 8 8 8 9 10 11 11 10 9 6 5 4 4 4 5 5 5 5 5 6 6 6 5 6 6 6 6 4 4 5 4 4 4 5 5 4 4 4 4 4 4 4 4 5 5 5 5 5 5 5 5 5 4 4 5 4 4 5
2 4 -1 -8 -9 -7 -7 -6 14 12 2 15 1 -9 4 5 6 12 22 17 8 9 6 8 7 6 7 9 12 12 12 11 12 13 10 11 12 11 9 7 7 8 10 11 11 12 11 8 5 3 3 3 4 5 5 5 5 5 5 6 6 6 6 7 6 6 4 4 4 3 4 5 4 4 4 4 4 5 5 5 5 5 5 5 5 5 5 4 4 4 4 5 4 4 4 4 4
13 13 2 -2 -1 -7 -4 -0 -2 9 22 11 -6 -7 1 8 6 10 19 11 9 10 9 13 7 6 9 9 11 11 12 11 13 15 11 10 9 9 10 10 9 9 10 10 12 14 11 6 3 2 3 4 4 5 5 5 5 5 5 6 6 7 7 7 6 5 4 4 4 3 4 4 3 4 4 4 4 5 5 5 4 5 5 5 4 4 6 4 4 4 4 4 4 4 4 4 4
21 11 -6 -8 3 -2 -4 -1 -7 11 21 -3 -5 4 2 7 3 7 14 7 8 8 8 13 7 6 8 7 9 9 11 10 11 14 11 8 7 9 12 11 10 10 10 10 12 13 9 4 2 2 3 5 5 5 5 5 6 6 6 6 7 7 6 7 7 5 4 4 4 4 4 3 3 5 5 3 5 5 4 5 5 5 5 5 4 4 5 4 4 5 5 5 5 6 5 4 4
8 3 -5 -8 4 6 -2 -6 -6 5 9 2 7 7 3 10 6 5 11 7 6 6 8 11 9 8 6 7 8 7 11 10 9 11 12 10 9 11 12 11 12 11 11 11 12 11 7 3 2 3 4 5 6 6 6 6 8 8 7 7 6 6 6 6 6 6 4 4 5 6 5 4 2 4 5 4 5 5 5 5 5 5 5 4 4 4 4 4 5 5 5 6 6 6 7 6 5
-4 -4 -0 -2 3 12 3 -8 -3 -2 3 9 5 2 8 17 12 5 11 11 4 5 8 8 10 10 6 8 7 6 9 9 10 11 11 11 12 12 11 12 13 13 12 11 12 9 5 3 3 3 5 6 7 7 6 6 7 9 8 7 6 6 7 7 7 6 6 6 6 6 6 4 3 4 4 5 6 5 6 6 5 5 5 4 4 4 4 4 4 4 5 5 6 7 8 8 8
-8 -0 13 12 3 9 8 -5 -10 -12 -2 9 3 1 4 8 11 8 13 12 2 4 8 7 10 10 7 7 7 6 7 11 14 12 9 13 14 11 11 14 13 13 12 11 11 8 4 3 3 4 6 7 7 7 6 5 6 7 8 7 8 8 7 8 7 6 6 7 7 6 6 5 5 4 4 6 6 6 7 6 5 5 5 4 4 3 3 4 4 5 5 6 6 6 7 8 9
-1 9 15 12 1 3 9 3 -6 -12 -5 7 5 -2 -4 4 10 9 13 9 2 6 7 7 10 10 9 8 9 7 4 13 18 14 13 16 14 10 13 14 13 13 11 10 9 6 4 3 3 6 7 7 6 6 5 5 6 6 7 7 9 8 6 7 6 7 7 6 6 5 6 7 6 6 7 7 7 7 7 5 5 5 4 3 2 3 3 4 4 4 5 6 6 6 6 7 8
8 10 2 3 8 8 6 6 5 -2 -7 4 7 -3 -1 8 5 6 9 3 3 7 6 7 9 10 10 9 11 7 5 14 17 15 14 15 14 11 14 13 11 12 10 8 7 4 3 2 4 6 7 7 5 5 5 5 6 6 7 7 8 7 6 6 6 7 7 6 6 6 6 7 7 7 8 8 7 6 5 5 5 4 4 2 2 3 3 4 4 4 5 5 5 6 6 7 8
8 6 2 5 11 9 3 5 7 5 -1 4 5 -5 2 8 1 9 11 2 5 6 6 8 7 9 9 9 11 8 8 13 15 15 11 11 13 11 10 11 9 10 8 7 6 3 3 3 5 7 7 6 4 5 5 5 6 6 7 6 6 7 6 6 7 6 6 7 7 6 7 7 6 7 7 7 6 5 4 4 3 3 3 3 3 3 3 4 3 4 4 4 5 6 6 7 7
3 3 7 6 12 9 -1 1 4 5 2 -0 2 1 8 10 4 9 11 8 9 5 6 8 8 9 8 8 10 7 9 13 14 16 13 9 12 10 7 8 7 7 7 6 5 5 5 6 7 7 6 4 4 5 5 6 6 6 7 7 7 7 6 6 7 7 7 8 7 7 7 7 5 5 6 5 4 3 3 3 3 4 4 3 4 3 3 4 4 4 4 5 5 6 6 6 6
-2 4 7 5 19 13 -5 2 6 4 5 -1 3 11 10 7 6 7 8 9 10 8 5 6 8 10 8 9 10 6 8 11 11 14 14 9 9 9 6 6 6 6 6 4 6 6 6 7 7 6 5 3 4 5 5 6 6 6 7 7 7 6 7 6 7 8 7 7 7 7 7 6 5 5 5 3 4 4 3 5 5 4 4 4 5 4 4 4 5 6 6 6 6 6 7 6 6
1 4 5 5 15 11 1 7 5 -0 3 -2 -0 10 10 7 6 8 9 4 5 9 6 4 7 10 9 9 10 8 6 9 10 11 12 10 8 7 6 6 6 7 6 4 6 7 7 6 5 5 4 4 5 5 6 7 6 7 7 7 7 6 7 7 7 7 7 6 6 6 6 5 5 5 5 3 4 4 4 5 5 4 5 6 7 7 7 7 7 7 7 8 8 7 7 6 6
9 3 9 10 5 10 8 2 2 0 -3 -3 -3 1 5 9 8 6 5 -1 1 8 7 5 4 8 11 11 11 9 6 7 7 10 12 12 11 9 9 8 8 8 7 6 7 7 7 6 4 5 5 5 6 5 6 7 7 7 7 7 7 7 7 8 8 7 6 5 6 6 5 5 5 4 4 4 3 3 3 4 3 4 5 6 8 9 9 9 9 9 8 8 9 9 8 8 7
12 4 2 2 -0 12 8 -5 1 1 0 1 -6 -6 1 10 12 8 5 2 5 8 8 8 3 6 10 10 12 10 7 6 5 9 10 10 13 12 11 9 8 9 8 8 7 6 6 5 4 4 5 5 6 7 7 7 7 8 8 8 8 7 7 7 7 5 5 5 5 5 5 4 4 3 3 3 3 3 4 4 5 5 6 7 8 9 9 9 9 9 9 9 9 9 9 9 9
10 7 -5 -3 8 12 -3 -7 0 -1 7 6 -7 -1 5 6 8 8 12 14 14 11 9 11 5 4 9 10 13 11 9 8 7 10 9 7 8 9 9 8 8 8 7 8 6 5 5 4 3 3 4 5 6 8 8 8 8 8 8 8 8 8 6 5 6 4 4 6 5 4 4 3 3 3 4 4 6 7 7 8 9 10 10 9 9 8 7 7 7 8 8 9 9 9 10 10 11
6 11 4 3 13 13 0 -0 3 -0 5 -1 -6 2 -0 6 17 15 15 15 16 12 8 13 8 3 6 8 12 11 9 9 9 10 10 10 8 5 6 6 7 7 6 7 5 4 4 3 4 2 3 5 6 8 8 8 8 8 9 8 7 7 6 4 4 5 4 4 4 3 3 4 4 5 6 7 9 9 9 10 10 11 12 12 10 8 6 5 4 5 6 8 9 10 11 10 10
5 8 7 2 4 14 10 1 -0 2 5 1 2 2 -6 6 20 16 11 9 9 5 1 7 10 7 6 6 10 11 10 9 9 9 8 9 8 6 6 5 5 6 6 7 6 5 3 3 3 2 3 4 5 7 8 8 7 8 8 7 6 5 6 5 3 5 4 3 4 4 5 4 4 6 7 8 9 8 8 9 10 11 13 14 12 9 6 3 2 3 4 5 8 10 11 10 9
11 10 8 4 2 9 4 -5 1 5 3 -1 -1 2 -0 3 8 4 2 7 9 6 6 9 11 11 7 5 8 11 12 11 9 8 5 6 7 6 5 4 4 5 6 7 6 6 3 2 3 3 5 5 5 7 7 8 8 7 7 6 5 4 5 5 3 3 3 4 5 4 4 3 3 5 7 8 7 8 9 10 11 12 13 13 12 10 6 5 4 4 4 5 7 8 10 10 10
13 12 10 9 12 17 7 -5 -0 2 -1 -3 -6 -4 -1 2 6 -0 -3 10 15 11 13 12 8 9 7 6 8 9 10 11 12 10 7 6 6 5 5 5 4 5 6 6 6 6 3 2 3 5 8 7 6 6 7 8 7 6 7 5 4 4 4 4 2 3 3 4 4 3 2 3 4 5 7 8 7 7 8 8 9 11 12 11 9 9 7 6 5 5 7 8 9 9 9 10 9
8 2 8 14 12 15 14 3 -2 3 10 14 10 3 -3 -2 3 0 1 10 12 8 10 10 8 9 10 9 9 8 8 8 11 13 12 11 6 4 5 6 6 5 4 5 5 5 6 5 4 5 7 8 7 6 6 7 7 6 6 5 4 4 4 4 4 4 4 4 3 3 3 4 5 5 7 7 6 6 5 6 8 9 11 10 9 9 7 7 7 8 9 9 9 9 8 9 9
6 4 11 17 9 3 10 8 -1 1 6 9 9 4 -0 -0 -2 -3 1 7 11 10 10 12 10 9 10 8 7 8 8 7 9 11 13 14 10 5 6 7 7 5 3 4 5 5 6 6 6 5 5 7 8 7 7 7 7 6 4 5 5 4 4 4 5 5 4 4 3 4 5 5 5 6 7 7 4 4 3 5 7 8 8 8 8 8 7 8 7 8 8 7 7 7 7 8 9
9 15 15 16 13 6 7 5 -2 -1 2 2 2 -0 1 6 3 -3 -1 7 11 5 6 12 8 6 10 9 7 7 7 7 7 8 10 12 11 9 9 9 8 6 5 6 8 8 7 7 6 6 5 6 8 8 7 7 7 6 6 6 4 4 5 4 5 5 4 4 5 6 6 5 6 7 7 6 4 3 4 5 7 8 8 7 7 7 6 6 5 5 6 6 7 7 6 7 8
11 15 13 15 14 12 8 -1 -6 -3 1 3 3 2 1 3 4 -2 -2 9 11 6 11 13 6 7 10 7 7 8 8 9 7 6 7 7 9 9 11 12 11 11 11 11 10 9 9 9 8 8 7 6 7 9 8 6 7 7 6 7 5 3 4 4 4 4 4 5 5 5 6 6 7 8 7 5 4 3 4 7 9 9 8 6 6 5 4 4 4 6 8 9 10 9 8 7 8
13 9 13 16 13 15 11 -5 -10 -5 2 4 0 1 2 1 2 2 5 12 12 7 6 4 7 14 12 7 8 8 8 9 7 6 6 6 6 7 7 8 9 11 10 9 10 9 9 9 8 8 8 7 6 8 8 6 6 7 7 6 5 4 4 4 4 4 4 5 3 3 5 8 8 8 8 6 4 4 6 8 9 7 6 6 6 5 5 4 5 10 11 11 11 12 13 13 12
14 5 11 15 11 15 12 -4 -9 -4 2 4 -2 -4 -1 2 4 7 12 10 3 -0 -3 -1 12 18 12 7 8 10 8 6 6 5 5 5 4 5 4 4 5 7 6 6 7 7 7 7 8 6 6 8 7 6 6 7 6 6 7 6 6 5 5 5 4 4 5 4 1 1 4 7 9 9 9 6 4 5 8 8 6 5 6 7 8 7 8 8 9 11 9 7 9 12 14 16 18
17 7 7 11 13 14 9 -1 -4 -3 -3 -1 -1 -6 -5 3 6 4 6 3 -1 -0 -2 2 13 17 13 8 9 13 9 4 6 7 6 5 3 3 3 3 6 6 5 6 6 6 6 7 8 7 6 7 7 6 5 5 6 6 5 6 6 5 5 5 5 4 5 5 1 0 4 8 9 9 8 6 6 7 8 6 4 6 9 9 10 12 14 15 14 11 7 7 9 9 10 11 14
17 12 4 5 13 13 4 -3 -2 -0 -4 -3 3 -2 -8 -1 5 4 2 1 1 -0 0 7 12 12 12 10 10 12 8 5 6 7 6 5 3 3 3 3 5 6 6 6 5 6 6 6 7 8 8 7 6 7 6 6 7 6 5 6 5 5 5 5 5 5 6 6 2 1 5 8 9 9 8 7 8 8 8 4 3 6 9 10 11 11 12 13 12 11 9 8 8 7 5 5 6
16 19 10 3 6 5 -1 -0 2 4 1 -1 4 1 -6 -5 0 7 8 4 2 1 7 15 12 10 11 11 11 8 7 6 4 6 7 5 5 5 4 2 2 4 5 4 4 4 4 5 7 7 7 7 6 5 5 6 6 6 5 5 4 5 5 4 4 5 6 6 3 3 6 10 10 8 8 9 10 10 7 3 3 7 8 7 7 7 6 6 7 8 7 5 4 3 2 2 5
16 28 23 7 4 5 5 8 10 11 9 3 -0 -2 -4 -6 -5 4 8 3 3 6 10 9 4 8 12 13 14 11 8 7 7 7 4 2 5 7 3 1 2 5 5 4 4 4 4 4 3 4 5 6 6 5 4 3 4 4 4 4 4 4 4 5 5 5 6 5 3 4 8 11 11 9 9 10 10 9 6 4 6 10 8 5 4 4 3 3 5 6 5 3 2 2 3 4 5
11 21 17 8 16 20 14 13 13 14 12 3 -1 -2 -4 -6 -6 -0 3 0 1 6 11 9 3 7 12 17 19 11 5 7 10 9 5 4 6 7 7 4 4 7 7 6 6 4 5 5 3 4 3 4 5 5 4 3 3 4 4 4 5 4 5 6 6 4 5 6 5 7 11 12 12 11 10 10 9 8 7 6 8 9 6 3 2 3 4 5 6 7 5 4 3 3 4 5 5
8 7 6 15 31 27 12 8 11 14 8 -1 2 2 -4 -2 -1 -0 2 -1 -3 2 9 15 12 8 9 17 21 14 6 9 11 8 9 12 8 6 9 8 6 8 7 6 6 5 5 5 6 7 7 9 9 7 6 5 4 5 6 6 6 6 7 6 4 4 6 8 8 10 13 14 12 10 9 8 7 8 8 6 7 7 4 2 3 5 5 5 6 7 6 4 5 5 5 5 5
6 4 6 16 26 25 16 10 8 11 3 -3 8 9 -0 -1 -1 0 4 -1 -2 6 11 18 21 11 4 11 21 21 16 16 17 11 9 11 7 6 9 8 5 6 7 6 5 6 7 8 10 11 12 13 11 8 7 5 6 6 6 7 7 7 8 7 6 8 10 10 11 12 13 13 10 7 7 6 6 7 6 5 5 5 4 3 5 6 5 5 5 5 5 5 7 8 8 8 8
5 6 8 10 10 15 20 16 9 10 3 -4 8 13 7 4 -0 -0 4 1 2 6 4 9 17 12 4 6 17 23 21 18 15 12 11 9 6 8 11 10 6 4 7 7 7 9 10 9 10 12 14 13 11 11 10 9 9 9 8 8 9 10 10 10 12 12 12 12 12 13 12 11 7 5 5 5 6 6 5 5 5 4 4 4 5 5 5 6 6 7 10 10 8 8 10 10 10
5 4 5 7 6 8 13 15 17 19 11 1 5 9 7 8 7 3 4 8 8 1 -5 1 12 16 11 2 3 13 19 19 12 6 10 14 12 12 14 12 8 8 9 8 9 12 10 8 10 12 14 15 17 18 16 16 15 12 12 12 12 13 13 12 13 13 13 12 12 12 10 7 5 4 5 6 6 6 5 4 4 3 4 4 4 6 6 7 9 13 16 13 7 8 11 11 9
5 4 3 3 6 10 6 5 15 19 12 7 8 8 8 12 15 9 5 8 5 -4 -3 4 6 5 3 -1 1 7 15 24 21 9 9 14 12 12 16 13 8 8 8 7 9 10 7 7 11 14 16 17 18 18 16 16 15 13 14 14 13 13 12 12 12 13 13 11 10 11 8 5 4 4 6 6 6 5 4 3 3 4 4 4 5 6 6 9 10 9 10 9 7 8 10 10 9
8 8 6 4 6 8 5 5 14 17 11 9 10 7 9 17 18 12 9 9 1 -4 2 6 3 -1 -2 5 9 2 5 24 28 14 9 13 12 11 12 10 9 9 8 8 9 6 5 9 12 13 15 16 15 14 13 12 11 12 12 12 12 11 11 12 12 12 11 10 10 10 6 3 4 6 6 6 5 4 2 3 4 4 4 5 5 4 6 11 10 5 5 8 9 8 8 9 9
Height
5909 5909 5908 5907 5907 5906 5905 5905 5906 5906 5906 5906 5905 5905 5905 5906 5907 5907 5906 5905 5905 5906 5906 5906 5907 5907 5907 5908 5908 5907 5908 5908 5908 5909 5910 5910 5910 5910 5910 5910 5910 5910 5910 5911 5911 5910 5911 5911 5911 5912 5912 5912 5911 5911 5911 5911 5912 5912 5912 5913 5913 5913 5914 5915 5915 5915 5915 5915 5915 5915 5915 5916 5916 5915 5915 5914 5914 5913 5913 5913 5912 5912 5912 5912 5912 5912 5912 5912 5912 5912 5912 5912 5912 5912 5912 5912 5911
5910 5910 5909 5908 5908 5907 5906 5907 5907 5907 5906 5906 5905 5905 5906 5906 5907 5907 5907 5907 5907 5907 5907 5907 5907 5908 5908 5908 5909 5908 5909 5910 5909 5910 5910 5911 5912 5912 5912 5912 5912 5911 5911 5912 5912 5912 5912 5912 5913 5913 5913 5912 5912 5912 5912 5913 5913 5913 5914 5914 5914 5915 5915 5916 5916 5915 5915 5916 5916 5916 5916 5916 5916 5916 5916 5915 5914 5914 5914 5913 5913 5913 5913 5913 5913 5912 5912 5912 5912 5912 5912 5913 5913 5913 5913 5912 5912
5910 5910 5909 5909 5909 5908 5908 5908 5908 5907 5907 5905 5905 5905 5906 5907 5907 5907 5907 5908 5908 5909 5908 5907 5908 5909 5909 5909 5909 5909 5910 5911 5911 5911 5911 5912 5913 5914 5914 5913 5913 5912 5912 5913 5913 5913 5914 5914 5914 5914 5913 5913 5913 5913 5914 5915 5915 5915 5915 5915 5915 5916 5916 5916 5916 5916 5916 5916 5917 5917 5917 5917 5917 5917 5916 5915 5915 5915 5914 5914 5913 5913 5913 5913 5913 5913 5913 5913 5913 5913 5913 5913 5913 5913 5913 5913 5912
5909 5909 5909 5909 5909 5909 5909 5909 5908 5907 5906 5906 5905 5905 5907 5907 5907 5906 5906 5907 5908 5908 5908 5908 5908 5910 5910 5909 5910 5911 5911 5912 5912 5911 5912 5913 5914 5915 5915 5915 5915 5914 5913 5914 5914 5914 5914 5914 5914 5914 5914 5914 5914 5915 5915 5916 5916 5916 5916 5916 5917 5917 5917 5917 5917 5917 5917 5917 5917 5918 5918 5918 5918 5917 5917 5916 5915 5915 5915 5914 5914 5914 5914 5914 5914 5914 5914 5914 5914 5914 5914 5914 5914 5914 5914 5913 5913
5909 5908 5908 5908 5908 5909 5909 5909 5909 5908 5906 5906 5906 5906 5907 5907 5907 5907 5907 5907 5907 5907 5908 5908 5909 5910 5911 5910 5912 5912 5912 5913 5914 5912 5912 5915 5915 5915 5916 5916 5916 5915 5915 5914 5915 5915 5915 5915 5915 5915 5915 5915 5916 5916 5917 5917 5917 5917 5917 5917 5918 5918 5918 5918 5918 5917 5917 5918 5918 5919 5919 5919 5918 5918 5917 5916 5916 5916 5915 5915 5915 5915 5915 5914 5914 5914 5914 5914 5914 5914 5914 5914 5914 5914 5914 5914 5913
5908 5908 5908 5908 5908 5909 5909 5909 5908 5908 5907 5906 5906 5907 5908 5908 5908 5908 5909 5909 5908 5908 5908 5908 5909 5911 5911 5911 5913 5913 5913 5914 5914 5914 5913 5915 5917 5916 5916 5916 5916 5916 5915 5915 5915 5915 5915 5915 5916 5916 5916 5917 5917 5917 5918 5918 5918 5918 5918 5918 5918 5919 5919 5919 5918 5918 5918 5919 5919 5920 5919 5919 5918 5918 5917 5916 5916 5916 5916 5915 5916 5916 5915 5915 5915 5915 5915 5915 5914 5914 5914 5915 5914 5914 5914 5914 5914
5908 5908 5908 5909 5910 5910 5909 5909 5908 5908 5907 5907 5907 5907 5909 5909 5909 5909 5909 5909 5910 5909 5909 5910 5910 5911 5912 5913 5914 5913 5913 5914 5915 5915 5914 5915 5917 5917 5917 5917 5917 5917 5916 5916 5916 5916 5916 5917 5917 5917 5917 5917 5918 5918 5918 5918 5919 5919 5919 5919 5919 5919 5919 5919 5919 5919 5919 5920 5920 5920 5920 5919 5919 5918 5917 5917 5917 5916 5916 5916 5916 5916 5916 5915 5915 5915 5915 5915 5915 5915 5915 5915 5914 5914 5914 5914 5914
5908 5908 5909 5910 5911 5911 5910 5909 5908 5908 5907 5906 5907 5908 5909 5910 5910 5910 5910 5910 5910 5910 5910 5911 5911 5912 5912 5913 5914 5914 5914 5915 5915 5915 5915 5916 5918 5918 5918 5918 5918 5918 5917 5917 5917 5917 5917 5917 5917 5917 5918 5918 5918 5919 5919 5919 5919 5919 5919 5920 5920 5920 5920 5920 5919 5919 5920 5921 5921 5921 5920 5920 5919 5918 5918 5918 5917 5917 5916 5916 5916 5916 5916 5916 5916 5916 5916 5915 5915 5915 5915 5915 5914 5914 5914 5914 5914
5909 5909 5910 5910 5911 5912 5911 5909 5908 5908 5907 5906 5908 5908 5909 5911 5911 5910 5910 5911 5911 5911 5911 5911 5912 5912 5913 5913 5914 5914 5915 5916 5916 5916 5916 5917 5918 5918 5918 5918 5918 5918 5918 5918 5918 5918 5918 5918 5918 5918 5918 5919 5919 5919 5919 5920 5920 5920 5920 5921 5921 5921 5921 5920 5920 5920 5921 5921 5922 5921 5921 5920 5920 5919 5919 5918 5918 5917 5917 5917 5917 5916 5916 5916 5916 5916 5916 5916 5916 5915 5915 5915 5915 5914 5914 5914 5914
5909 5910 5911 5911 5911 5911 5911 5909 5907 5907 5906 5906 5907 5908 5909 5912 5912 5911 5911 5912 5912 5911 5911 5912 5912 5913 5913 5914 5914 5915 5916 5916 5916 5916 5917 5917 5918 5918 5918 5919 5918 5918 5918 5918 5918 5918 5918 5918 5918 5918 5919 5919 5919 5919 5920 5920 5920 5920 5921 5921 5922 5921 5921 5921 5921 5921 5922 5922 5922 5922 5921 5921 5920 5920 5920 5919 5919 5918 5918 5918 5917 5917 5917 5917 5917 5917 5917 5916 5916 5915 5915 5915 5915 5915 5915 5915 5915
5909 5910 5911 5911 5911 5910 5910 5909 5907 5907 5906 5906 5908 5909 5910 5911 5912 5912 5912 5912 5912 5912 5912 5913 5913 5913 5914 5914 5915 5915 5916 5917 5916 5916 5917 5917 5917 5918 5918 5919 5919 5918 5918 5918 5918 5918 5918 5918 5918 5919 5919 5919 5919 5920 5920 5921 5921 5921 5922 5922 5922 5922 5922 5922 5922 5922 5922 5923 5922 5922 5922 5921 5921 5920 5920 5920 5919 5919 5919 5918 5918 5918 5918 5918 5918 5918 5917 5917 5916 5916 5915 5915 5915 5915 5915 5915 5915
5909 5911 5912 5911 5911 5910 5910 5909 5907 5907 5907 5908 5909 5909 5910 5912 5913 5912 5912 5912 5912 5912 5913 5913 5914 5914 5914 5915 5915 5916 5917 5917 5917 5916 5917 5917 5918 5918 5918 5919 5919 5919 5918 5918 5918 5918 5918 5918 5919 5919 5919 5920 5920 5921 5921 5921 5922 5922 5922 5923 5923 5923 5923 5923 5922 5923 5923 5923 5923 5923 5922 5922 5921 5921 5921 5920 5920 5920 5920 5919 5919 5919 5919 5919 5919 5918 5918 5917 5917 5916 5916 5915 5915 5915 5915 5915 5915
5911 5912 5912 5911 5910 5909 5909 5909 5908 5908 5908 5909 5910 5909 5909 5911 5912 5912 5912 5912 5913 5913 5913 5913 5914 5914 5914 5915 5915 5916 5917 5917 5917 5917 5917 5917 5918 5918 5918 5919 5919 5919 5918 5918 5918 5918 5919 5919 5919 5920 5920 5920 5921 5921 5922 5922 5922 5923 5923 5923 5924 5924 5923 5923 5923 5924 5924 5923 5923 5923 5923 5922 5922 5922 5922 5921 5921 5921 5921 5921 5920 5920 5920 5920 5920 5920 5919 5918 5918 5917 5917 5916 5916 5916 5916 5916 5915
5912 5912 5912 5911 5910 5909 5909 5909 5909 5909 5909 5909 5909 5908 5908 5910 5912 5912 5911 5912 5913 5913 5913 5913 5914 5914 5914 5915 5915 5916 5917 5918 5918 5917 5917 5918 5918 5918 5919 5919 5919 5919 5919 5919 5919 5919 5919 5919 5920 5920 5921 5921 5922 5922 5922 5923 5923 5923 5923 5924 5924 5924 5924 5924 5924 5924 5924 5924 5924 5923 5923 5923 5923 5923 5923 5922 5922 5922 5922 5922 5922 5922 5922 5922 5922 5921 5920 5920 5919 5919 5918 5918 5917 5917 5917 5917 5917
5911 5912 5912 5912 5911 5910 5909 5910 5910 5909 5908 5909 5908 5908 5909 5911 5912 5912 5911 5912 5912 5913 5913 5913 5914 5914 5914 5915 5915 5916 5918 5918 5918 5918 5918 5918 5918 5919 5919 5919 5919 5919 5919 5919 5919 5919 5919 5919 5920 5921 5921 5922 5922 5922 5923 5923 5923 5924 5924 5925 5925 5924 5924 5925 5925 5925 5925 5924 5924 5924 5924 5924 5924 5924 5924 5924 5924 5924 5924 5924 5923 5923 5923 5923 5923 5922 5922 5921 5921 5920 5920 5920 5919 5919 5919 5918 5918
5911 5912 5913 5912 5911 5911 5911 5910 5910 5909 5909 5909 5909 5909 5909 5910 5911 5912 5912 5912 5912 5912 5913 5913 5913 5914 5915 5915 5915 5916 5917 5918 5918 5918 5918 5918 5919 5919 5919 5919 5919 5919 5919 5919 5919 5919 5919 5919 5920 5921 5921 5922 5922 5923 5923 5924 5924 5924 5925 5925 5925 5925 5925 5925 5926 5925 5925 5925 5925 5925 5925 5925 5925 5925 5925 5925 5925 5926 5926 5925 5925 5925 5925 5925 5924 5923 5923 5923 5922 5922 5922 5921 5921 5920 5920 5920 5919
5912 5913 5913 5911 5910 5911 5911 5911 5911 5911 5910 5910 5909 5908 5908 5908 5910 5912 5912 5912 5912 5912 5912 5913 5913 5913 5914 5915 5915 5916 5917 5917 5918 5918 5918 5918 5919 5919 5919 5919 5919 5919 5919 5919 5919 5919 5919 5919 5920 5921 5921 5922 5923 5923 5924 5924 5925 5925 5925 5925 5925 5925 5926 5926 5926 5926 5926 5926 5926 5926 5926 5926 5925 5926 5926 5926 5927 5927 5927 5927 5927 5927 5926 5926 5925 5925 5924 5924 5924 5923 5923 5923 5922 5922 5921 5921 5920
5912 5912 5912 5910 5910 5910 5911 5912 5912 5911 5911 5910 5909 5907 5906 5907 5909 5911 5911 5912 5912 5911 5911 5912 5912 5913 5914 5914 5915 5916 5916 5917 5917 5918 5918 5918 5918 5918 5918 5919 5919 5919 5919 5919 5919 5919 5919 5920 5920 5921 5922 5922 5923 5924 5924 5925 5925 5925 5925 5925 5926 5926 5926 5927 5927 5927 5927 5927 5927 5927 5927 5926 5926 5927 5927 5928 5928 5928 5928 5928 5928 5928 5927 5927 5927 5926 5926 5925 5925 5925 5925 5924 5924 5923 5923 5922 5921
5912 5911 5911 5910 5910 5910 5911 5913 5912 5911 5911 5910 5910 5908 5908 5908 5910 5911 5911 5912 5912 5912 5910 5910 5911 5912 5913 5914 5914 5915 5916 5916 5917 5917 5918 5918 5918 5918 5918 5918 5918 5919 5919 5919 5919 5919 5919 5920 5921 5921 5922 5923 5923 5924 5925 5925 5925 5925 5926 5926 5926 5927 5927 5928 5928 5927 5927 5927 5927 5927 5927 5927 5927 5928 5929 5929 5929 5929 5929 5929 5929 5929 5928 5928 5928 5928 5927 5927 5927 5926 5926 5925 5925 5924 5923 5923 5922
5911 5910 5910 5909 5909 5910 5911 5912 5912 5912 5911 5911 5911 5909 5908 5908 5909 5911 5911 5912 5912 5911 5910 5910 5911 5911 5912 5913 5913 5914 5915 5916 5916 5917 5917 5917 5917 5918 5918 5918 5918 5918 5919 5919 5919 5920 5920 5920 5921 5922 5923 5923 5924 5924 5925 5925 5926 5926 5927 5927 5927 5928 5928 5928 5928 5928 5928 5928 5928 5928 5928 5928 5929 5929 5930 5930 5930 5930 5930 5930 5930 5930 5930 5929 5929 5929 5928 5928 5928 5927 5926 5926 5925 5925 5924 5923 5923
5911 5910 5908 5907 5908 5910 5911 5911 5913 5913 5911 5910 5910 5909 5908 5908 5909 5910 5911 5911 5911 5910 5910 5910 5910 5911 5911 5912 5912 5913 5914 5915 5915 5916 5917 5917 5917 5917 5917 5918 5918 5918 5919 5919 5919 5919 5920 5921 5922 5922 5923 5924 5925 5925 5926 5926 5927 5927 5927 5928 5928 5928 5929 5929 5929 5929 5929 5929 5929 5929 5929 5930 5930 5931 5931 5931 5931 5931 5931 5931 5931 5931 5931 5931 5930 5930 5929 5929 5929 5928 5927 5926 5926 5925 5925 5924 5923
5911 5910 5907 5906 5906 5908 5910 5912 5913 5913 5912 5910 5910 5909 5908 5907 5908 5910 5911 5911 5910 5910 5910 5910 5909 5910 5911 5911 5911 5912 5912 5913 5914 5915 5916 5916 5917 5917 5917 5917 5918 5918 5919 5919 5919 5920 5920 5921 5922 5923 5924 5925 5925 5926 5926 5927 5927 5928 5928 5928 5929 5929 5929 5929 5929 5929 5929 5929 5930 5930 5930 5931 5931 5932 5932 5932 5932 5932 5932 5932 5932 5932 5931 5931 5931 5930 5930 5929 5929 5929 5928 5927 5926 5926 5925 5925 5924
5911 5910 5907 5905 5905 5907 5910 5912 5913 5913 5912 5910 5910 5909 5908 5907 5907 5910 5911 5910 5909 5910 5910 5910 5909 5909 5910 5910 5910 5911 5912 5912 5913 5914 5915 5915 5916 5917 5917 5917 5918 5918 5919 5919 5919 5920 5921 5922 5923 5924 5924 5925 5926 5926 5926 5927 5928 5928 5929 5929 5929 5929 5929 5929 5930 5930 5930 5930 5931 5931 5932 5932 5933 5933 5933 5933 5933 5933 5933 5932 5932 5932 5932 5931 5931 5931 5930 5930 5930 5929 5929 5928 5927 5926 5926 5925 5924
5910 5909 5906 5904 5904 5907 5909 5911 5912 5913 5912 5911 5909 5909 5908 5907 5907 5909 5910 5909 5908 5909 5910 5910 5909 5909 5910 5910 5910 5910 5911 5911 5912 5913 5914 5915 5915 5916 5917 5917 5917 5918 5918 5919 5919 5920 5921 5922 5923 5924 5924 5925 5926 5926 5927 5927 5928 5929 5929 5930 5930 5930 5930 5930 5930 5930 5931 5931 5932 5932 5933 5933 5934 5934 5934 5934 5934 5933 5933 5933 5933 5932 5932 5931 5931 5931 5930 5930 5930 5930 5929 5928 5928 5927 5926 5926 5925
5906 5904 5903 5902 5905 5907 5909 5910 5911 5911 5912 5911 5909 5909 5908 5907 5906 5908 5909 5907 5907 5908 5909 5909 5909 5908 5909 5909 5910 5910 5910 5911 5911 5912 5913 5914 5915 5916 5916 5917 5917 5917 5918 5919 5919 5920 5921 5922 5923 5924 5925 5925 5926 5926 5927 5928 5929 5929 5930 5930 5930 5930 5930 5930 5931 5931 5932 5932 5933 5933 5934 5934 5934 5934 5934 5934 5934 5934 5934 5933 5933 5932 5932 5932 5932 5931 5930 5931 5931 5930 5929 5929 5928 5928 5927 5926 5925
5902 5900 5900 5900 5902 5905 5908 5909 5910 5910 5910 5911 5909 5908 5908 5907 5907 5908 5908 5907 5906 5907 5908 5908 5909 5909 5908 5909 5910 5910 5910 5911 5911 5912 5912 5913 5914 5915 5916 5916 5917 5917 5918 5919 5919 5920 5921 5922 5923 5924 5925 5925 5926 5927 5928 5928 5929 5930 5930 5930 5930 5930 5930 5931 5932 5932 5933 5933 5933 5934 5934 5935 5935 5935 5935 5935 5934 5935 5934 5933 5933 5933 5933 5932 5932 5931 5931 5931 5930 5930 5930 5929 5929 5928 5927 5927 5926
5900 5899 5898 5898 5899 5902 5905 5908 5910 5909 5909 5910 5909 5908 5907 5907 5908 5908 5908 5907 5906 5907 5907 5907 5908 5909 5908 5908 5909 5910 5910 5910 5911 5911 5912 5913 5914 5915 5916 5916 5917 5918 5918 5919 5920 5920 5921 5923 5923 5924 5925 5926 5927 5927 5928 5929 5929 5930 5930 5930 5930 5930 5931 5931 5932 5933 5933 5934 5934 5934 5935 5935 5935 5935 5935 5935 5935 5935 5934 5934 5934 5934 5933 5933 5932 5932 5931 5931 5931 5930 5930 5930 5929 5929 5928 5928 5927
5900 5899 5899 5898 5899 5901 5903 5906 5908 5908 5909 5910 5908 5908 5906 5906 5908 5909 5909 5907 5906 5906 5906 5907 5908 5908 5908 5908 5909 5909 5910 5910 5910 5911 5911 5912 5913 5914 5916 5917 5917 5918 5919 5919 5920 5921 5922 5923 5924 5925 5925 5926 5927 5928 5928 5929 5929 5930 5930 5930 5930 5931 5931 5932 5933 5933 5934 5934 5934 5935 5935 5935 5935 5935 5935 5935 5935 5935 5934 5934 5934 5934 5933 5933 5933 5933 5932 5932 5931 5931 5930 5930 5929 5929 5928 5928 5927
5900 5900 5898 5898 5899 5901 5901 5903 5905 5907 5909 5909 5908 5908 5906 5905 5907 5909 5909 5908 5906 5906 5906 5906 5907 5908 5909 5908 5908 5909 5909 5909 5910 5910 5911 5912 5913 5914 5915 5917 5918 5918 5919 5920 5921 5922 5922 5923 5924 5925 5926 5926 5927 5927 5928 5928 5929 5929 5930 5930 5931 5931 5932 5933 5933 5934 5934 5934 5935 5935 5935 5935 5935 5936 5935 5935 5935 5935 5935 5934 5934 5934 5934 5933 5933 5933 5932 5932 5931 5930 5930 5930 5929 5928 5928 5927 5927
5899 5899 5898 5897 5898 5900 5902 5902 5903 5906 5908 5908 5908 5909 5907 5905 5906 5908 5909 5909 5907 5906 5906 5906 5906 5907 5908 5909 5909 5908 5909 5909 5909 5910 5911 5912 5913 5914 5915 5917 5918 5918 5919 5920 5921 5922 5923 5924 5924 5925 5925 5926 5926 5927 5927 5928 5929 5929 5930 5931 5931 5932 5933 5933 5934 5934 5935 5935 5935 5935 5936 5935 5936 5936 5936 5935 5935 5935 5935 5934 5934 5934 5934 5933 5933 5933 5932 5931 5930 5930 5929 5929 5928 5928 5927 5927 5926
5898 5898 5897 5898 5899 5901 5902 5902 5903 5906 5906 5906 5908 5909 5907 5904 5905 5908 5909 5909 5908 5906 5906 5906 5906 5907 5908 5909 5909 5909 5909 5909 5910 5910 5911 5911 5912 5914 5916 5917 5918 5919 5919 5920 5921 5922 5923 5923 5924 5924 5925 5925 5926 5926 5927 5928 5929 5930 5931 5931 5932 5932 5933 5934 5934 5935 5935 5935 5936 5936 5936 5936 5936 5936 5936 5935 5935 5935 5935 5935 5935 5934 5934 5933 5932 5932 5931 5931 5930 5929 5929 5928 5928 5927 5926 5926 5926
5896 5897 5898 5898 5899 5901 5902 5902 5903 5905 5906 5906 5907 5908 5907 5904 5905 5907 5907 5909 5908 5907 5907 5906 5907 5906 5907 5908 5908 5908 5908 5909 5910 5911 5911 5912 5912 5914 5916 5917 5918 5919 5920 5920 5921 5922 5923 5923 5923 5924 5925 5925 5926 5926 5927 5928 5929 5930 5931 5932 5932 5933 5933 5934 5934 5935 5935 5936 5936 5936 5936 5936 5936 5936 5936 5935 5935 5935 5935 5935 5934 5934 5933 5933 5932 5931 5931 5930 5930 5929 5928 5928 5927 5926 5926 5925 5925
5894 5896 5898 5899 5900 5901 5902 5901 5902 5904 5905 5905 5906 5908 5906 5904 5905 5906 5906 5908 5908 5907 5907 5907 5907 5907 5907 5907 5908 5908 5908 5909 5910 5911 5912 5912 5913 5914 5915 5917 5918 5919 5920 5920 5921 5922 5923 5923 5924 5924 5925 5926 5926 5927 5927 5928 5929 5930 5931 5932 5932 5933 5933 5933 5934 5935 5935 5935 5936 5936 5936 5936 5936 5936 5936 5935 5935 5935 5935 5934 5934 5933 5933 5932 5932 5931 5930 5930 5929 5929 5928 5928 5927 5926 5925 5924 5924
5893 5895 5898 5899 5899 5900 5901 5902 5902 5903 5905 5905 5905 5906 5905 5904 5904 5905 5906 5907 5907 5907 5907 5907 5907 5907 5906 5907 5907 5908 5908 5909 5909 5910 5911 5912 5913 5914 5915 5916 5917 5919 5919 5920 5921 5922 5923 5923 5924 5925 5925 5926 5926 5927 5928 5929 5929 5930 5931 5931 5932 5932 5933 5933 5934 5934 5935 5935 5936 5936 5936 5936 5936 5935 5935 5935 5935 5935 5934 5934 5934 5933 5932 5932 5931 5931 5930 5929 5929 5928 5927 5927 5927 5926 5925 5924 5923
5892 5895 5897 5898 5899 5899 5899 5901 5902 5902 5904 5904 5904 5905 5904 5903 5903 5904 5905 5906 5906 5906 5907 5907 5907 5907 5906 5906 5907 5907 5908 5908 5909 5909 5910 5911 5913 5914 5915 5916 5917 5918 5919 5920 5921 5922 5923 5924 5924 5925 5925 5926 5926 5927 5928 5929 5929 5930 5930 5930 5931 5931 5932 5933 5933 5934 5935 5935 5935 5936 5936 5936 5935 5935 5935 5935 5935 5934 5934 5934 5933 5933 5932 5931 5931 5930 5930 5929 5928 5927 5927 5926 5926 5925 5924 5923 5922
5891 5894 5896 5897 5899 5899 5898 5900 5901 5902 5903 5903 5903 5904 5903 5902 5902 5902 5903 5904 5905 5905 5906 5907 5907 5906 5906 5906 5906 5907 5907 5908 5908 5909 5909 5911 5912 5913 5915 5916 5917 5918 5919 5920 5921 5922 5923 5924 5925 5925 5925 5926 5926 5927 5928 5929 5929 5929 5930 5930 5931 5931 5932 5932 5933 5934 5934 5935 5935 5935 5935 5935 5935 5935 5935 5935 5934 5934 5933 5933 5932 5932 5931 5930 5930 5929 5928 5928 5927 5927 5926 5925 5925 5924 5923 5923 5922
5889 5891 5893 5896 5897 5898 5898 5899 5900 5901 5902 5902 5902 5903 5902 5901 5901 5901 5902 5903 5904 5904 5905 5906 5906 5905 5905 5905 5906 5906 5907 5907 5908 5908 5909 5910 5911 5912 5914 5915 5917 5918 5919 5920 5921 5922 5923 5924 5924 5925 5925 5926 5926 5927 5928 5929 5929 5930 5930 5931 5931 5931 5932 5932 5933 5933 5934 5934 5934 5935 5935 5935 5935 5935 5934 5934 5933 5933 5932 5932 5932 5931 5930 5930 5929 5928 5928 5927 5926 5926 5925 5924 5924 5923 5923 5922 5921
5886 5888 5890 5893 5895 5896 5896 5896 5897 5899 5900 5901 5902 5902 5901 5901 5900 5900 5900 5901 5903 5903 5904 5905 5905 5905 5905 5905 5905 5905 5906 5907 5908 5908 5909 5910 5911 5912 5913 5914 5916 5917 5919 5920 5921 5921 5922 5923 5924 5924 5925 5925 5926 5927 5928 5929 5929 5930 5930 5931 5931 5931 5932 5932 5933 5933 5933 5934 5934 5934 5934 5934 5935 5934 5934 5933 5933 5932 5931 5931 5930 5930 5929 5928 5928 5927 5927 5927 5926 5925 5925 5924 5923 5922 5922 5921 5920
5883 5885 5887 5889 5892 5895 5894 5892 5893 5896 5899 5901 5901 5901 5901 5900 5899 5898 5898 5900 5901 5902 5902 5903 5904 5905 5905 5904 5904 5905 5905 5906 5907 5908 5909 5910 5911 5912 5913 5914 5915 5917 5918 5919 5920 5921 5922 5922 5923 5924 5924 5925 5926 5927 5927 5928 5929 5929 5930 5930 5931 5931 5932 5932 5932 5933 5933 5934 5934 5934 5934 5934 5934 5934 5933 5933 5932 5931 5931 5930 5929 5928 5928 5927 5927 5927 5926 5926 5925 5925 5924 5923 5922 5921 5920 5920 5919
5879 5881 5883 5886 5890 5892 5892 5892 5892 5894 5898 5900 5901 5901 5900 5898 5897 5897 5897 5898 5899 5900 5901 5902 5903 5904 5904 5904 5904 5904 5904 5905 5906 5907 5908 5909 5911 5912 5913 5913 5914 5916 5917 5919 5920 5921 5921 5921 5922 5923 5924 5924 5925 5926 5927 5928 5928 5929 5929 5930 5930 5931 5932 5932 5932 5933 5933 5933 5934 5934 5934 5933 5933 5933 5933 5932 5932 5931 5930 5929 5928 5927 5926 5926 5926 5926 5925 5925 5924 5923 5922 5921 5921 5920 5919 5918 5917
5876 5878 5880 5885 5889 5890 5891 5892 5892 5893 5895 5898 5900 5899 5897 5896 5895 5895 5896 5897 5897 5899 5900 5901 5902 5903 5903 5904 5904 5904 5904 5904 5905 5906 5907 5908 5909 5911 5912 5913 5914 5915 5916 5918 5919 5920 5920 5920 5921 5922 5923 5924 5924 5925 5926 5927 5928 5928 5929 5929 5930 5931 5931 5932 5932 5932 5932 5933 5933 5933 5933 5933 5932 5932 5932 5931 5931 5930 5929 5928 5928 5927 5926 5925 5925 5925 5924 5924 5923 5922 5921 5920 5919 5918 5917 5916 5915
5875 5876 5878 5883 5888 5890 5890 5890 5890 5890 5891 5894 5897 5897 5895 5893 5894 5895 5895 5896 5896 5897 5898 5900 5902 5901 5902 5903 5903 5903 5903 5903 5904 5906 5907 5908 5908 5910 5911 5912 5913 5914 5915 5917 5918 5919 5920 5920 5921 5921 5922 5923 5924 5925 5925 5926 5927 5928 5928 5929 5929 5930 5931 5931 5931 5931 5932 5932 5932 5932 5932 5932 5931 5931 5930 5930 5929 5929 5928 5928 5927 5926 5925 5925 5925 5924 5923 5922 5922 5921 5920 5919 5918 5916 5915 5915 5914
5872 5875 5878 5881 5884 5887 5888 5888 5887 5886 5887 5892 5893 5894 5894 5892 5892 5893 5894 5895 5895 5895 5896 5898 5899 5900 5901 5902 5903 5903 5903 5903 5903 5905 5906 5907 5908 5909 5910 5911 5913 5913 5914 5915 5917 5918 5919 5920 5920 5921 5921 5922 5923 5924 5925 5925 5926 5927 5927 5928 5929 5929 5930 5930 5931 5931 5931 5931 5931 5931 5931 5931 5930 5930 5929 5929 5928 5928 5927 5927 5926 5925 5925 5924 5924 5923 5922 5921 5920 5920 5918 5917 5916 5915 5914 5914 5913
5871 5876 5877 5878 5881 5883 5885 5886 5885 5884 5885 5889 5890 5891 5892 5890 5889 5892 5892 5893 5894 5894 5894 5895 5897 5898 5900 5900 5901 5902 5903 5903 5903 5903 5905 5906 5907 5908 5909 5910 5911 5912 5913 5914 5915 5916 5918 5919 5919 5920 5920 5921 5922 5923 5924 5925 5925 5926 5926 5927 5928 5928 5929 5929 5930 5930 5930 5930 5930 5930 5930 5929 5929 5928 5928 5927 5927 5927 5926 5926 5925 5924 5924 5923 5923 5922 5921 5920 5920 5919 5918 5916 5915 5914 5914 5913 5912
5871 5875 5874 5876 5878 5880 5883 5884 5883 5884 5883 5883 5884 5886 5887 5886 5887 5890 5890 5890 5892 5893 5894 5894 5895 5897 5899 5899 5899 5900 5901 5902 5902 5902 5904 5905 5906 5906 5907 5909 5910 5911 5912 5913 5914 5914 5916 5917 5918 5919 5919 5920 5921 5922 5923 5924 5925 5925 5925 5926 5926 5927 5928 5928 5929 5929 5929 5929 5929 5929 5928 5928 5928 5927 5927 5926 5926 5925 5925 5925 5924 5924 5923 5922 5922 5921 5920 5919 5919 5918 5917 5916 5915 5914 5913 5913 5912
5869 5871 5870 5874 5875 5876 5879 5879 5880 5882 5878 5877 5880 5882 5882 5882 5884 5887 5886 5886 5889 5892 5893 5893 5893 5895 5896 5898 5898 5898 5900 5901 5901 5902 5902 5904 5905 5906 5906 5908 5909 5910 5911 5912 5912 5913 5914 5916 5917 5918 5918 5918 5919 5920 5922 5923 5924 5924 5924 5925 5925 5926 5926 5927 5927 5927 5928 5927 5928 5928 5928 5926 5926 5926 5926 5925 5925 5925 5924 5924 5923 5923 5922 5922 5921 5920 5919 5918 5918 5917 5916 5915 5914 5913 5913 5912 5911
5866 5867 5867 5870 5871 5873 5875 5874 5877 5876 5870 5872 5877 5879 5879 5879 5879 5881 5882 5884 5888 5891 5891 5892 5892 5893 5894 5896 5897 5897 5898 5899 5900 5901 5902 5903 5904 5904 5905 5906 5908 5909 5910 5910 5911 5912 5913 5914 5916 5917 5917 5917 5918 5919 5920 5922 5923 5923 5923 5923 5924 5924 5925 5926 5926 5926 5926 5926 5926 5926 5926 5926 5925 5924 5924 5924 5924 5924 5923 5923 5923 5922 5922 5921 5920 5919 5919 5918 5917 5916 5915 5914 5913 5912 5911 5910 5909
5860 5862 5863 5865 5867 5869 5869 5870 5871 5866 5863 5869 5874 5877 5876 5873 5874 5877 5879 5883 5887 5888 5889 5890 5891 5891 5892 5894 5895 5896 5896 5896 5898 5899 5900 5901 5902 5903 5904 5905 5906 5907 5908 5909 5910 5911 5912 5913 5914 5915 5916 5917 5917 5918 5919 5920 5921 5922 5922 5922 5923 5923 5924 5924 5925 5925 5925 5925 5925 5925 5925 5924 5924 5923 5923 5923 5923 5923 5923 5922 5922 5922 5921 5920 5919 5918 5918 5917 5916 5915 5914 5913 5912 5911 5910 5908 5907
5855 5857 5858 5859 5862 5863 5862 5863 5863 5859 5861 5868 5872 5874 5870 5867 5871 5876 5878 5881 5884 5885 5887 5888 5888 5889 5890 5891 5893 5894 5894 5894 5895 5897 5899 5900 5901 5902 5903 5904 5904 5905 5906 5907 5907 5908 5910 5911 5912 5913 5914 5915 5916 5916 5917 5919 5920 5920 5921 5921 5921 5922 5922 5923 5923 5923 5923 5923 5923 5923 5923 5923 5922 5922 5922 5922 5922 5922 5922 5922 5921 5921 5920 5919 5918 5917 5916 5916 5915 5914 5913 5912 5911 5910 5909 5907 5906
5849 5852 5852 5853 5856 5855 5855 5857 5858 5857 5861 5866 5870 5870 5865 5863 5868 5873 5876 5879 5881 5883 5885 5886 5886 5887 5888 5889 5890 5891 5892 5892 5893 5895 5896 5897 5899 5900 5901 5901 5902 5904 5904 5905 5905 5906 5908 5909 5910 5911 5912 5913 5914 5915 5916 5917 5918 5919 5919 5920 5920 5920 5921 5921 5921 5921 5922 5922 5921 5921 5921 5921 5921 5921 5921 5921 5921 5920 5921 5921 5920 5920 5919 5919 5918 5916 5916 5915 5914 5913 5912 5910 5909 5908 5907 5906 5904
5845 5848 5850 5849 5850 5850 5851 5854 5855 5856 5860 5864 5867 5863 5858 5860 5865 5870 5875 5877 5878 5880 5882 5883 5884 5885 5886 5887 5887 5889 5890 5890 5892 5893 5894 5895 5897 5898 5899 5899 5900 5901 5902 5903 5904 5904 5906 5907 5908 5909 5910 5911 5912 5913 5914 5915 5916 5917 5918 5918 5919 5919 5919 5919 5919 5919 5920 5920 5920 5919 5919 5919 5919 5919 5919 5919 5920 5920 5919 5919 5919 5919 5918 5918 5917 5916 5915 5914 5913 5911 5910 5909 5907 5906 5904 5903 5903
5841 5845 5845 5843 5846 5849 5850 5853 5854 5856 5858 5860 5861 5857 5856 5860 5864 5868 5873 5874 5875 5877 5879 5880 5881 5882 5884 5884 5885 5887 5888 5889 5890 5891 5892 5893 5894 5896 5897 5898 5898 5899 5900 5901 5902 5902 5904 5905 5906 5907 5907 5908 5909 5910 5911 5912 5913 5914 5915 5916 5917 5917 5917 5917 5917 5917 5917 5918 5917 5917 5917 5917 5917 5917 5918 5918 5919 5919 5919 5918 5918 5918 5917 5917 5916 5915 5914 5913 5911 5910 5909 5907 5906 5904 5903 5901 5901
5838 5839 5839 5841 5846 5850 5849 5850 5853 5855 5854 5853 5855 5854 5856 5860 5861 5864 5869 5870 5872 5874 5875 5877 5879 5880 5882 5883 5884 5885 5886 5887 5888 5889 5889 5890 5892 5893 5894 5895 5896 5897 5898 5899 5899 5900 5901 5902 5903 5904 5905 5906 5907 5908 5909 5910 5910 5911 5912 5913 5914 5915 5915 5915 5914 5914 5915 5915 5915 5915 5915 5915 5915 5916 5916 5917 5917 5918 5918 5917 5917 5916 5916 5915 5915 5914 5913 5911 5910 5909 5907 5906 5904 5903 5902 5900 5899
5833 5833 5836 5841 5844 5845 5845 5846 5848 5849 5847 5847 5851 5852 5853 5856 5858 5861 5864 5867 5869 5871 5873 5874 5876 5878 5879 5881 5883 5884 5884 5885 5885 5886 5887 5888 5889 5890 5891 5893 5893 5895 5896 5897 5897 5898 5899 5900 5901 5901 5902 5903 5904 5905 5906 5907 5908 5908 5909 5910 5911 5912 5912 5912 5912 5912 5912 5912 5912 5912 5913 5913 5914 5914 5915 5915 5916 5916 5917 5916 5916 5915 5914 5914 5913 5912 5911 5910 5908 5907 5906 5904 5903 5902 5900 5899 5898
5828 5830 5835 5837 5837 5838 5839 5839 5840 5842 5841 5842 5846 5848 5849 5851 5855 5858 5861 5863 5867 5869 5870 5871 5873 5875 5877 5878 5880 5881 5882 5882 5883 5884 5885 5886 5887 5888 5889 5890 5891 5893 5894 5894 5895 5896 5897 5898 5899 5899 5900 5900 5901 5901 5903 5904 5905 5906 5906 5907 5908 5909 5909 5909 5909 5909 5909 5909 5910 5910 5911 5911 5912 5913 5913 5914 5914 5915 5915 5915 5914 5913 5912 5911 5910 5910 5909 5908 5907 5906 5905 5904 5902 5901 5899 5898 5897
5825 5827 5829 5830 5831 5834 5835 5835 5835 5838 5839 5839 5842 5843 5843 5846 5852 5856 5858 5860 5864 5867 5867 5868 5870 5872 5874 5876 5877 5878 5879 5880 5881 5882 5883 5885 5885 5886 5887 5888 5889 5891 5891 5892 5893 5894 5895 5896 5896 5897 5897 5898 5898 5899 5901 5901 5902 5902 5903 5904 5904 5905 5906 5906 5906 5906 5906 5907 5907 5908 5909 5909 5910 5911 5912 5912 5913 5913 5913 5913 5912 5911 5910 5909 5908 5908 5907 5906 5905 5904 5903 5902 5901 5899 5898 5896 5895
5820 5822 5822 5824 5826 5828 5831 5831 5831 5833 5835 5836 5837 5837 5838 5844 5849 5853 5855 5858 5861 5863 5865 5866 5867 5869 5871 5873 5875 5876 5876 5877 5878 5880 5881 5882 5883 5883 5885 5886 5887 5888 5888 5890 5891 5892 5893 5894 5894 5895 5895 5896 5897 5897 5898 5899 5899 5899 5900 5901 5901 5902 5902 5903 5903 5904 5904 5904 5905 5906 5907 5907 5908 5909 5910 5911 5911 5911 5911 5911 5910 5909 5907 5907 5906 5906 5905 5904 5903 5903 5901 5900 5898 5897 5896 5894 5893
5817 5819 5820 5821 5823 5824 5825 5825 5826 5828 5830 5833 5834 5832 5834 5841 5847 5850 5853 5855 5858 5860 5861 5862 5864 5866 5868 5870 5873 5873 5874 5874 5875 5877 5878 5879 5880 5881 5883 5884 5884 5885 5886 5888 5890 5891 5892 5892 5893 5893 5893 5894 5895 5895 5896 5896 5896 5897 5897 5898 5898 5899 5900 5900 5901 5901 5902 5902 5903 5904 5905 5905 5906 5907 5908 5909 5909 5909 5909 5909 5908 5907 5905 5904 5904 5904 5903 5902 5901 5900 5899 5898 5896 5895 5893 5892 5890